Regional Weather Roundup
Issued by NWS Goodland, KS

Home | Current Version | Previous Version | Graphics & Text | Print | Product List | Glossary On
Versions: 1 2 3 4 5 6 7 8 9 10 11 12 13 14 15 16 17 18 19 20 21 22 23 24 25 26 27 28 29 30 31 32 33 34 35 36 37 38 39 40 41 42 43 44 45 46 47 48 49 50
000
ASUS43 KGLD 260608
RWRGLD

GOODLAND FORECAST AREA HOURLY WEATHER ROUNDUP
NATIONAL WEATHER SERVICE GOODLAND KS
1200 AM MDT WED JUL 26 2017

...OFFICIAL OBSERVATIONS...

CITY           SKY/WX    TMP DP  RH WIND       PRES   REMARKS
GOODLAND KS    CLOUDY    74  62  66 N6        29.98F
HILL CITY KS   CLOUDY    87  65  47 S17G25    29.90F
IMPERIAL NEB   CLOUDY    73  61  65 W9        29.93F
MCCOOK NEB     CLOUDY    81  68  64 E6        29.90F
AKRON CO       PTCLDY    70  59  68 W14       30.07F
BURLINGTON CO  CLOUDY    74  61  63 NW8       30.03F
LIMON CO       CLOUDY    66  61  84 NW9       30.17R
$$

...UNOFFICIAL OBSERVATIONS...

CITY           SKY/WX    TMP DP  RH WIND       PRES   REMARKS
LENORA KS        N/A     84  32  15 MISG        N/A
NORTON KS      MOCLDY    81  61  50 SE15G21   29.89F
SHARON SPRINGS   N/A     71  67  86 W7          N/A
TRENTON NEB      N/A     75  32  20 CALM        N/A
KIT CARSON CO    N/A     74  61  63 CALM        N/A
YUMA CO        FAIR      70  57  64 W10       30.02F
$$



USA.gov is the U.S. government's official web portal to all federal, state and local government web resources and services.